Hourly Data Report for September 13, 2017

All times are specified in Local Standard Time (LST). Add 1 hour to adjust for Daylight Saving Time where and when it is observed.

MIRAMICHI RCS
NEW BRUNSWICK

47°00'34.000" N
65°27'54.000" W
33.00 m
8100989
71744
ACQ

Download Data

Hourly Data (September 2017)
Hourly Data Report for September 13, 2017
Temp Definition
°C
Dew Point Temp Definition
°C
Rel Hum Definition
%
Wind Dir Definition
10's deg

Wind Spd Definition
km/h
Visibility Definition
km
Stn Press Definition
kPa
Hmdx Definition


Wind Chill Definition


Weather Definition


TIME
00:00 12.3 10.8 91 27 4   100.14     LegendNANA
01:00 14.0 11.7 86 31 5   100.16     LegendNANA
02:00 11.3 9.6 89 22 2   100.14     LegendNANA
03:00 10.5 9.6 94 27 5   100.14     LegendNANA
04:00 10.8 9.9 95 25 3   100.12     LegendNANA
05:00 9.7 8.7 93 25 3   100.12     LegendNANA
06:00 9.4 8.6 95 24 3   100.17     LegendNANA
07:00 11.4 10.2 93 26 7   100.22     LegendNANA
08:00 14.1 11.9 86 27 11   100.23     LegendNANA
09:00 17.9 13.3 75 27 10   100.23     LegendNANA
10:00 21.5 14.4 64 29 13   100.22 25   LegendNANA
11:00 23.7 13.3 52 26 10   100.18 27   LegendNANA
12:00 25.3 11.4 42 27 14   100.12 27   LegendNANA
13:00 26.3 10.1 36 29 13   100.10 28   LegendNANA
14:00 26.9 9.8 34 25 23   100.03 28   LegendNANA
15:00 27.0 10.0 34 26 19   100.01 28   LegendNANA
16:00 26.7 10.1 35 24 23   100.01 28   LegendNANA
17:00 26.0 10.3 37 25 20   100.02 27   LegendNANA
18:00 23.4 11.5 47 24 13   100.02 25   LegendNANA
19:00 20.6 11.8 57 23 14   100.05     LegendNANA
20:00 20.5 11.4 56 23 13   100.07     LegendNANA
21:00 20.5 11.2 55 25 15   100.07     LegendNANA
22:00 19.3 11.3 60 24 18   100.07     LegendNANA
23:00 18.5 11.5 64 24 15   100.07     LegendNANA

Notes on Data Quality.

Legend

  • E = Estimated
  • M = Missing
  • NA = Not Available
  • ‡ = Partner data that is not subject to review by the National Climate Archives
Date modified: